STARLINK-1848 (46740 NORAD) Tracking and Keplerian Element Data

This shows tracking and keplerian element data for the satellite.

Feedback or suggestion? Click here.




ElementValue
Catalog46740
NameSTARLINK-1848
Epoch Orbit562
Epoch Day331.16668981
Epoch Year2020
RAAN0.7495
Inclination53.0548
Eccentricity0.0001175
Argument of Perigee67.1904
Mean Anonmoly154.8332
Mean Motion15.62782717
Decay Rate-9.179E-05
L11 46740U 20074B 20331.16668981 -.00009179 00000-0 -94412-4 0 9990
L22 46740 53.0548 0.7495 0001175 67.1904 154.8332 15.62782717 5629

Live tracking and technical data element details for STARLINK-1848 (NORAD 46740). STARLINK-1848 can be tracked NOW for your location showing map with azimuth and elevation plus other details from your city location.

Track the satellite on the map from your city or location and see movement details for azimuth, elevation, latitude, longitude, range, height, and movement on the map or in text.







IsCatalogInMostPopularTable: catalog: 46740, numindb: 6
Update: records affected: 1



GetName: 46740 STARLINK-1848

Hit Count: updated at: Thu, 26 Nov 2020 20:43:17 GMT